Flight Track Log - Related Links

Times and Time Zones

All times are in EDT time to prevent confusion due to time zone crossing. See the EGF2730 flight status page for this flight to view local times or setup timezone preferences in your user account.

Time Position Orientation Groundspeed Altitude Reporting Facility
EDT Latitude Longitude Course Direction KTS MPH feet Rate Location/Type
Tue 02:31:15 PM 42.0000 -87.8667 66° East 156 180 1,900  Level Chicago TRACON
Tue 02:32:21 PM 42.0167 -87.7833 75° East 212 244 4,100 1,406 Climbing Chicago TRACON
Tue 02:33:00 PM 42.0876 -87.5570 59° Northeast  Level FlightAware Approximate
Tue 02:33:23 PM 42.0214 -87.7142 85° East 224 258 4,900  Level Chicago Center
Tue 02:34:00 PM 42.1376 -87.4447 59° Northeast  Level FlightAware Approximate
Tue 02:34:25 PM 42.0578 -87.6331 59° Northeast 251 289 5,000  Level Chicago Center
Tue 02:35:00 PM 42.1799 -87.3271 66° East  Level FlightAware Approximate
Tue 02:35:27 PM 42.0914 -87.5433 63° Northeast 263 303 7,000  Level Chicago Center
Tue 02:36:00 PM 42.2197 -87.2075 66° East  Level FlightAware Approximate
Tue 02:36:29 PM 42.1361 -87.4319 62° Northeast 281 323 9,500  Level Chicago Center
Tue 02:37:31 PM 42.1736 -87.3314 63° Northeast 297 342 11,600 1,887 Climbing Chicago Center
Tue 02:38:33 PM 42.2142 -87.2283 62° Northeast 310 357 13,400 1,742 Climbing Chicago Center
Tue 02:39:35 PM 42.2564 -87.1217 62° Northeast 322 371 15,200 1,645 Climbing Chicago Center
Tue 02:40:37 PM 42.2839 -87.0025 73° East 335 386 16,800 1,742 Climbing Chicago Center
Tue 02:41:39 PM 42.2872 -86.8472 88° East 347 399 18,800 1,645 Climbing Chicago Center
Tue 02:42:41 PM 42.2922 -86.7119 87° East 360 414 20,200 1,392 Climbing Chicago Center
Tue 02:43:44 PM 42.2978 -86.5819 87° East 366 421 21,700 1,248 Climbing Chicago Center
Tue 02:44:46 PM 42.3039 -86.4175 87° East 382 440 22,800 871 Climbing Chicago Center
Tue 02:45:48 PM 42.3092 -86.2653 87° East 402 463 23,500 726 Climbing Chicago Center
Tue 02:46:50 PM 42.3139 -86.1075 88° East 418 481 24,300 726 Climbing Chicago Center
Tue 02:47:52 PM 42.3125 -85.9478 91° East 428 493 25,000 677 Climbing Chicago Center
Tue 02:48:54 PM 42.3103 -85.7856 91° East 434 499 25,700 919 Climbing Chicago Center
Tue 02:49:56 PM 42.3083 -85.5897 91° East 437 503 26,900 1,113 Climbing Chicago Center
Tue 02:50:58 PM 42.3067 -85.4281 91° East 435 501 28,000 1,016 Climbing Chicago Center
Tue 02:52:00 PM 42.3036 -85.2672 91° East 432 497 29,000 960 Climbing Chicago Center
Tue 02:53:03 PM 42.3008 -85.1083 91° East 428 493 30,000 960 Climbing Chicago Center
Tue 02:54:05 PM 42.2978 -84.9478 91° East 429 494 31,000 968 Climbing Chicago Center
Tue 02:55:07 PM 42.3175 -84.7511 82° East 449 517 32,000 774 Climbing Chicago Center
Tue 02:56:09 PM 42.3539 -84.5864 73° East 459 528 32,600 484 Climbing Chicago Center
Tue 02:57:11 PM 42.3919 -84.4153 73° East 471 542 33,000 245 Climbing Chicago Center
Tue 02:57:47 PM 42.4100 -84.3208 75° East 458 527 33,000  Level Cleveland Center
Tue 02:58:47 PM 42.4492 -84.1375 74° East 479 551 33,000  Level Cleveland Center
Tue 02:59:47 PM 42.4881 -83.9536 74° East 491 565 33,000  Level Cleveland Center
Tue 03:00:47 PM 42.5264 -83.7756 74° East 496 571 33,000  Level Cleveland Center
Tue 03:01:47 PM 42.5644 -83.5969 74° East 496 571 33,000  Level Cleveland Center
Tue 03:02:47 PM 42.6006 -83.4125 75° East 496 571 33,000 -50 Level Cleveland Center
Tue 03:03:47 PM 42.6381 -83.2333 74° East 490 564 32,900 -500 Descending Cleveland Center
Tue 03:04:47 PM 42.6733 -83.0542 75° East 490 564 32,000 -950 Descending Cleveland Center
Tue 03:05:47 PM 42.7081 -82.8833 74° East 485 558 31,000 -950 Descending Cleveland Center
Tue 03:06:47 PM 42.7428 -82.7036 75° East 480 552 30,100 -950 Descending Cleveland Center
Tue 03:07:47 PM 42.7772 -82.5208 76° East 486 559 29,100 -550 Descending Cleveland Center
Tue 03:08:47 PM 42.8136 -82.3408 75° East 486 559 29,000 -50 Descending Cleveland Center
Tue 03:09:47 PM 42.8475 -82.1606 76° East 486 559 29,000  Level Cleveland Center
Tue 03:11:52 PM 42.9167 -81.7500 77° East 500 575 29,000  Level Toronto Center
Tue 03:12:52 PM 42.9500 -81.5667 76° East 500 575 29,000 -950 Level Toronto Center
Tue 03:13:52 PM 42.9833 -81.3833 76° East 500 575 27,100 -1,900 Descending Toronto Center
Tue 03:14:52 PM 43.0000 -81.2000 83° East 490 564 25,200 -2,500 Descending Toronto Center
Tue 03:15:52 PM 43.0667 -81.0500 59° Northeast 460 529 22,100 -3,000 Descending Toronto Center
Tue 03:16:52 PM 43.1333 -80.9167 56° Northeast 450 518 19,200 -2,950 Descending Toronto Center
Tue 03:17:52 PM 43.2333 -80.7833 44° Northeast 430 495 16,200 -2,800 Descending Toronto Center
Tue 03:18:52 PM 43.2833 -80.6667 59° Northeast 410 472 13,600 -2,500 Descending Toronto Center
Tue 03:19:52 PM 43.3500 -80.5500 52° Northeast 390 449 11,200 -1,800 Descending Toronto Center
Tue 03:20:52 PM 43.4167 -80.4333 52° Northeast 350 403 10,000 -1,250 Descending Toronto Center
Tue 03:21:52 PM 43.4500 -80.3500 61° Northeast 290 334 8,700 -1,350 Descending Toronto Center
Tue 03:22:52 PM 43.4667 -80.2500 77° East 280 322 7,300 -567 Descending Toronto Center
Tue 03:24:52 PM 43.4833 -80.0667 83° East 250 288 7,000 -433 Descending Toronto Center
Tue 03:25:52 PM 43.4667 -79.9833 105° East 250 288 6,000 -1,250 Descending Toronto Center
Tue 03:26:52 PM 43.4667 -79.8833 90° East 240 276 4,500 -1,450 Descending Toronto Center
Tue 03:27:52 PM 43.5000 -79.8167 55° Northeast 230 265 3,100 -1,400 Descending Toronto Center

Login

Don't have an account? Register now (free) for customized features, flight alerts, and more!